QPF
0.03 0.02 0.01 0.01 0.01 0.01 0.01 0.01 0.00 0.01 0.01 0.01 0.00 0.00 0.00 0.01 0.01 0.01 0.02 0.02 0.02 0.01 0.01 0.01 0.01 0.01 0.01 0.02 0.02 0.02 0.04 0.04 0.04 0.03 0.02 0.02 0.02 0.03 0.03 0.03 0.03 0.03 0.02 0.02
0.01 0.01 0.01 0.01 0.01 0.01 0.01 0.01 0.00 0.01 0.01 0.01 0.00 0.00 0.00 0.01 0.01 0.01 0.02 0.02 0.01 0.01 0.01 0.01 0.02 0.01 0.01 0.01 0.01 0.02 0.02 0.02 0.02 0.02 0.02 0.01 0.02 0.02 0.03 0.03 0.02 0.02 0.02 0.01
0.01 0.01 0.01 0.02 0.01 0.01 0.01 0.01 0.00 0.00 0.01 0.01 0.01 0.00 0.01 0.01 0.02 0.01 0.01 0.01 0.01 0.01 0.01 0.01 0.01 0.01 0.01 0.00 0.00 0.01 0.02 0.02 0.02 0.01 0.01 0.01 0.01 0.02 0.02 0.02 0.02 0.02 0.02 0.02
0.00 0.00 0.02 0.02 0.01 0.01 0.01 0.01 0.00 0.00 0.00 0.01 0.01 0.01 0.01 0.01 0.02 0.02 0.01 0.01 0.01 0.01 0.01 0.01 0.01 0.00 0.00 0.00 0.00 0.00 0.01 0.02 0.02 0.01 0.01 0.01 0.01 0.01 0.01 0.01 0.02 0.02 0.02 0.02
0.00 0.01 0.01 0.03 0.01 0.01 0.01 0.01 0.01 0.01 0.01 0.01 0.00 0.01 0.00 0.00 0.01 0.02 0.01 0.01 0.01 0.01 0.01 0.01 0.01 0.01 0.01 0.01 0.00 0.00 0.00 0.01 0.01 0.01 0.01 0.01 0.01 0.01 0.01 0.01 0.02 0.03 0.02 0.01
0.00 0.01 0.01 0.02 0.01 0.01 0.01 0.01 0.01 0.01 0.01 0.00 0.00 0.01 0.00 0.00 0.00 0.01 0.01 0.01 0.01 0.01 0.01 0.02 0.02 0.02 0.02 0.02 0.01 0.01 0.00 0.00 0.01 0.02 0.02 0.01 0.01 0.01 0.01 0.00 0.01 0.02 0.02 0.01
0.00 0.00 0.01 0.01 0.01 0.01 0.01 0.01 0.01 0.00 0.00 0.00 0.00 0.00 0.00 0.00 0.00 0.00 0.01 0.02 0.02 0.01 0.01 0.02 0.02 0.03 0.02 0.01 0.01 0.01 0.01 0.00 0.01 0.01 0.02 0.02 0.02 0.01 0.01 0.01 0.01 0.01 0.01 0.01
0.00 0.00 0.01 0.01 0.01 0.01 0.01 0.01 0.01 0.01 0.01 0.00 0.00 0.00 0.00 0.00 0.00 0.00 0.01 0.01 0.01 0.01 0.01 0.02 0.03 0.03 0.02 0.02 0.01 0.01 0.01 0.01 0.01 0.01 0.01 0.01 0.01 0.01 0.01 0.01 0.01 0.01 0.01 0.01
0.00 0.00 0.00 0.01 0.01 0.02 0.01 0.01 0.02 0.01 0.01 0.01 0.00 0.00 0.00 0.00 0.00 0.01 0.01 0.01 0.01 0.01 0.02 0.03 0.03 0.03 0.02 0.02 0.02 0.01 0.01 0.01 0.01 0.02 0.02 0.01 0.01 0.01 0.01 0.01 0.01 0.01 0.01 0.02
0.00 0.00 0.00 0.00 0.01 0.02 0.02 0.02 0.02 0.01 0.01 0.01 0.01 0.01 0.01 0.01 0.01 0.01 0.01 0.01 0.01 0.01 0.01 0.01 0.02 0.02 0.02 0.02 0.01 0.01 0.01 0.01 0.01 0.02 0.02 0.02 0.01 0.01 0.01 0.01 0.01 0.01 0.01 0.02
0.00 0.00 0.00 0.01 0.01 0.01 0.01 0.02 0.02 0.01 0.01 0.02 0.01 0.01 0.01 0.01 0.01 0.01 0.01 0.01 0.01 0.01 0.01 0.02 0.03 0.03 0.03 0.02 0.01 0.01 0.02 0.01 0.01 0.02 0.02 0.02 0.02 0.01 0.01 0.01 0.01 0.01 0.02 0.02
0.00 0.00 0.00 0.01 0.01 0.01 0.02 0.02 0.02 0.02 0.02 0.02 0.02 0.01 0.01 0.01 0.01 0.01 0.01 0.01 0.01 0.01 0.02 0.03 0.04 0.03 0.02 0.02 0.01 0.01 0.02 0.02 0.01 0.02 0.02 0.02 0.02 0.02 0.01 0.01 0.01 0.02 0.02 0.02
0.01 0.01 0.00 0.00 0.00 0.01 0.01 0.02 0.03 0.03 0.02 0.02 0.02 0.01 0.01 0.01 0.01 0.00 0.00 0.00 0.01 0.00 0.01 0.02 0.02 0.01 0.01 0.01 0.01 0.02 0.02 0.02 0.02 0.02 0.02 0.03 0.02 0.02 0.02 0.01 0.01 0.02 0.01 0.01
0.01 0.00 0.00 0.00 0.00 0.00 0.00 0.01 0.02 0.03 0.02 0.02 0.01 0.01 0.01 0.01 0.01 0.00 0.00 0.00 0.01 0.01 0.01 0.01 0.01 0.01 0.01 0.02 0.02 0.02 0.02 0.03 0.03 0.02 0.02 0.02 0.03 0.03 0.03 0.02 0.02 0.01 0.01 0.01
0.00 0.00 0.00 0.01 0.01 0.01 0.01 0.01 0.01 0.01 0.01 0.01 0.01 0.01 0.01 0.01 0.01 0.01 0.00 0.00 0.01 0.01 0.01 0.00 0.01 0.02 0.02 0.02 0.02 0.02 0.02 0.03 0.03 0.03 0.02 0.02 0.04 0.04 0.03 0.03 0.02 0.02 0.02 0.01
0.00 0.00 0.01 0.01 0.01 0.01 0.01 0.01 0.01 0.01 0.00 0.00 0.01 0.01 0.01 0.01 0.01 0.01 0.01 0.01 0.01 0.01 0.00 0.00 0.00 0.01 0.03 0.03 0.02 0.02 0.02 0.02 0.02 0.03 0.02 0.02 0.04 0.04 0.04 0.03 0.02 0.02 0.02 0.02
0.01 0.01 0.01 0.01 0.01 0.02 0.02 0.01 0.01 0.01 0.01 0.00 0.01 0.02 0.03 0.03 0.02 0.01 0.01 0.01 0.01 0.01 0.00 0.00 0.00 0.01 0.02 0.03 0.03 0.02 0.02 0.02 0.02 0.02 0.02 0.02 0.03 0.04 0.04 0.03 0.02 0.02 0.02 0.02
0.00 0.00 0.01 0.01 0.01 0.03 0.02 0.01 0.01 0.01 0.01 0.01 0.01 0.02 0.03 0.03 0.02 0.01 0.01 0.01 0.02 0.01 0.01 0.01 0.01 0.01 0.02 0.03 0.03 0.02 0.02 0.02 0.02 0.02 0.02 0.02 0.02 0.03 0.03 0.03 0.02 0.02 0.02 0.02
0.00 0.00 0.00 0.01 0.02 0.03 0.01 0.01 0.02 0.02 0.02 0.01 0.01 0.01 0.01 0.02 0.01 0.00 0.00 0.01 0.01 0.01 0.01 0.01 0.01 0.01 0.01 0.02 0.02 0.02 0.01 0.01 0.02 0.02 0.01 0.01 0.02 0.03 0.03 0.02 0.02 0.03 0.03 0.04
0.00 0.00 0.00 0.01 0.02 0.03 0.02 0.01 0.02 0.02 0.03 0.02 0.01 0.01 0.01 0.02 0.01 0.01 0.00 0.00 0.01 0.01 0.01 0.01 0.01 0.00 0.00 0.01 0.02 0.02 0.02 0.01 0.01 0.01 0.01 0.02 0.02 0.02 0.03 0.03 0.03 0.03 0.04 0.04
0.00 0.00 0.00 0.01 0.01 0.02 0.01 0.00 0.01 0.02 0.03 0.01 0.01 0.01 0.01 0.01 0.01 0.01 0.00 0.01 0.01 0.01 0.01 0.01 0.01 0.01 0.01 0.02 0.02 0.02 0.02 0.01 0.01 0.01 0.01 0.02 0.02 0.03 0.03 0.04 0.03 0.03 0.03 0.03
0.00 0.00 0.01 0.01 0.01 0.01 0.00 0.00 0.01 0.02 0.01 0.01 0.01 0.01 0.01 0.01 0.01 0.01 0.00 0.00 0.00 0.01 0.01 0.01 0.01 0.02 0.02 0.03 0.02 0.02 0.01 0.02 0.01 0.01 0.01 0.02 0.03 0.03 0.03 0.04 0.04 0.04 0.04 0.04
0.00 0.00 0.00 0.01 0.01 0.01 0.01 0.00 0.00 0.00 0.00 0.00 0.00 0.00 0.00 0.00 0.01 0.01 0.01 0.00 0.00 0.00 0.01 0.01 0.01 0.02 0.02 0.02 0.02 0.01 0.01 0.01 0.02 0.01 0.01 0.02 0.02 0.03 0.03 0.03 0.02 0.02 0.02 0.03
0.00 0.00 0.00 0.00 0.00 0.00 0.00 0.00 0.00 0.00 0.00 0.00 0.00 0.00 0.00 0.00 0.00 0.00 0.01 0.01 0.00 0.00 0.01 0.01 0.01 0.01 0.01 0.01 0.01 0.01 0.01 0.01 0.02 0.02 0.02 0.02 0.02 0.03 0.03 0.02 0.02 0.02 0.02 0.03
0.00 0.01 0.01 0.01 0.00 0.00 0.00 0.00 0.00 0.00 0.00 0.00 0.00 0.00 0.00 0.00 0.00 0.00 0.00 0.01 0.01 0.01 0.01 0.01 0.01 0.01 0.01 0.01 0.01 0.01 0.01 0.01 0.02 0.03 0.02 0.02 0.03 0.03 0.03 0.02 0.01 0.02 0.02 0.03
0.01 0.01 0.01 0.01 0.00 0.00 0.00 0.00 0.00 0.00 0.00 0.00 0.00 0.00 0.00 0.00 0.00 0.00 0.00 0.01 0.01 0.01 0.01 0.01 0.01 0.01 0.00 0.00 0.00 0.01 0.02 0.02 0.03 0.03 0.03 0.03 0.03 0.02 0.02 0.02 0.02 0.02 0.02 0.02
MSLP
1010.70 1011.61 1012.31 1012.79 1013.09 1013.26 1013.37 1013.48 1013.64 1013.83 1014.04 1014.24 1014.38 1014.43 1014.38 1014.25 1014.08 1013.90 1013.77 1013.71 1013.73 1013.81 1013.93 1014.04 1014.12 1014.13 1014.08 1013.98 1013.88 1013.81 1013.81 1013.90 1014.08 1014.33 1014.62 1014.89 1015.11 1015.25 1015.28 1015.22 1015.10 1014.93 1014.76 1014.61
1011.08 1011.77 1012.26 1012.56 1012.73 1012.84 1012.96 1013.15 1013.41 1013.73 1014.06 1014.34 1014.51 1014.55 1014.45 1014.23 1013.97 1013.73 1013.56 1013.50 1013.56 1013.71 1013.92 1014.11 1014.25 1014.30 1014.26 1014.15 1014.02 1013.91 1013.89 1013.98 1014.17 1014.47 1014.82 1015.16 1015.46 1015.67 1015.78 1015.78 1015.71 1015.60 1015.47 1015.36
1011.27 1011.74 1012.02 1012.15 1012.22 1012.31 1012.48 1012.78 1013.18 1013.65 1014.10 1014.46 1014.65 1014.65 1014.46 1014.13 1013.75 1013.40 1013.16 1013.08 1013.16 1013.37 1013.66 1013.95 1014.17 1014.28 1014.28 1014.18 1014.04 1013.92 1013.89 1013.97 1014.19 1014.52 1014.92 1015.33 1015.71 1016.00 1016.19 1016.27 1016.27 1016.23 1016.16 1016.11
1011.32 1011.57 1011.67 1011.68 1011.70 1011.81 1012.08 1012.53 1013.10 1013.72 1014.29 1014.70 1014.88 1014.80 1014.48 1013.99 1013.44 1012.95 1012.60 1012.47 1012.54 1012.80 1013.16 1013.55 1013.86 1014.06 1014.12 1014.07 1013.95 1013.84 1013.81 1013.91 1014.14 1014.51 1014.96 1015.43 1015.88 1016.26 1016.53 1016.70 1016.78 1016.81 1016.82 1016.82
1011.30 1011.36 1011.32 1011.26 1011.29 1011.48 1011.89 1012.51 1013.25 1014.02 1014.68 1015.11 1015.24 1015.04 1014.55 1013.86 1013.11 1012.44 1011.96 1011.73 1011.78 1012.06 1012.48 1012.95 1013.37 1013.67 1013.82 1013.84 1013.78 1013.71 1013.71 1013.83 1014.10 1014.50 1014.99 1015.52 1016.04 1016.48 1016.83 1017.08 1017.24 1017.34 1017.40 1017.46
1011.26 1011.20 1011.07 1011.00 1011.08 1011.40 1011.96 1012.75 1013.66 1014.54 1015.26 1015.68 1015.72 1015.37 1014.68 1013.78 1012.81 1011.95 1011.31 1010.97 1010.96 1011.24 1011.71 1012.25 1012.76 1013.16 1013.42 1013.53 1013.56 1013.56 1013.61 1013.78 1014.09 1014.52 1015.06 1015.64 1016.21 1016.71 1017.12 1017.44 1017.66 1017.82 1017.93 1018.01
1011.25 1011.11 1010.96 1010.93 1011.11 1011.56 1012.28 1013.22 1014.25 1015.21 1015.94 1016.31 1016.24 1015.73 1014.85 1013.73 1012.56 1011.51 1010.71 1010.27 1010.20 1010.45 1010.93 1011.53 1012.13 1012.62 1012.98 1013.20 1013.32 1013.41 1013.54 1013.77 1014.13 1014.61 1015.19 1015.81 1016.42 1016.97 1017.43 1017.79 1018.06 1018.25 1018.39 1018.49
1011.27 1011.10 1010.99 1011.03 1011.32 1011.90 1012.76 1013.81 1014.91 1015.90 1016.60 1016.89 1016.69 1016.03 1014.98 1013.68 1012.35 1011.14 1010.23 1009.69 1009.55 1009.77 1010.26 1010.89 1011.53 1012.11 1012.56 1012.88 1013.10 1013.28 1013.50 1013.80 1014.22 1014.76 1015.37 1016.03 1016.67 1017.26 1017.75 1018.14 1018.43 1018.64 1018.80 1018.91
1011.30 1011.16 1011.11 1011.24 1011.64 1012.32 1013.26 1014.36 1015.48 1016.43 1017.06 1017.25 1016.94 1016.15 1014.98 1013.57 1012.13 1010.84 1009.85 1009.25 1009.07 1009.25 1009.72 1010.36 1011.03 1011.65 1012.16 1012.57 1012.88 1013.17 1013.47 1013.86 1014.35 1014.93 1015.59 1016.28 1016.95 1017.56 1018.07 1018.48 1018.78 1019.00 1019.16 1019.27
1011.33 1011.24 1011.27 1011.49 1011.96 1012.71 1013.67 1014.76 1015.81 1016.68 1017.20 1017.28 1016.88 1016.01 1014.78 1013.34 1011.88 1010.58 1009.58 1008.96 1008.75 1008.91 1009.34 1009.95 1010.61 1011.25 1011.80 1012.27 1012.66 1013.04 1013.44 1013.91 1014.47 1015.11 1015.82 1016.54 1017.24 1017.86 1018.38 1018.80 1019.11 1019.33 1019.48 1019.58
1011.33 1011.32 1011.42 1011.71 1012.23 1012.97 1013.88 1014.88 1015.81 1016.54 1016.93 1016.90 1016.43 1015.53 1014.32 1012.94 1011.55 1010.32 1009.37 1008.79 1008.57 1008.70 1009.10 1009.65 1010.28 1010.90 1011.46 1011.96 1012.42 1012.88 1013.36 1013.92 1014.56 1015.27 1016.02 1016.78 1017.49 1018.13 1018.66 1019.08 1019.40 1019.62 1019.77 1019.87
1011.30 1011.37 1011.54 1011.87 1012.38 1013.07 1013.87 1014.72 1015.47 1016.03 1016.27 1016.14 1015.62 1014.76 1013.63 1012.36 1011.12 1010.03 1009.19 1008.67 1008.48 1008.59 1008.93 1009.43 1010.00 1010.57 1011.12 1011.65 1012.16 1012.68 1013.26 1013.90 1014.62 1015.39 1016.19 1016.98 1017.71 1018.37 1018.91 1019.34 1019.66 1019.89 1020.04 1020.14
1011.27 1011.40 1011.63 1011.97 1012.43 1013.01 1013.66 1014.31 1014.85 1015.21 1015.30 1015.08 1014.56 1013.75 1012.75 1011.67 1010.61 1009.70 1009.01 1008.58 1008.43 1008.52 1008.81 1009.24 1009.73 1010.26 1010.79 1011.33 1011.88 1012.48 1013.13 1013.86 1014.64 1015.48 1016.32 1017.14 1017.90 1018.56 1019.12 1019.56 1019.89 1020.13 1020.30 1020.40
1011.26 1011.46 1011.71 1012.02 1012.41 1012.85 1013.32 1013.74 1014.06 1014.22 1014.16 1013.87 1013.35 1012.64 1011.80 1010.91 1010.07 1009.36 1008.82 1008.50 1008.39 1008.47 1008.71 1009.06 1009.48 1009.96 1010.46 1011.01 1011.61 1012.27 1013.00 1013.81 1014.67 1015.55 1016.43 1017.28 1018.04 1018.72 1019.28 1019.74 1020.09 1020.35 1020.54 1020.66
1011.33 1011.56 1011.80 1012.07 1012.36 1012.65 1012.91 1013.11 1013.22 1013.19 1013.00 1012.66 1012.16 1011.55 1010.87 1010.19 1009.56 1009.03 1008.65 1008.41 1008.34 1008.40 1008.59 1008.88 1009.24 1009.67 1010.16 1010.73 1011.37 1012.10 1012.91 1013.78 1014.69 1015.62 1016.53 1017.38 1018.16 1018.83 1019.40 1019.87 1020.25 1020.54 1020.76 1020.91
1011.48 1011.71 1011.93 1012.14 1012.31 1012.44 1012.52 1012.52 1012.43 1012.24 1011.95 1011.57 1011.11 1010.60 1010.08 1009.58 1009.13 1008.77 1008.50 1008.34 1008.29 1008.33 1008.47 1008.70 1009.01 1009.41 1009.90 1010.49 1011.19 1011.97 1012.84 1013.78 1014.73 1015.69 1016.60 1017.46 1018.23 1018.90 1019.48 1019.96 1020.36 1020.69 1020.95 1021.14
1011.72 1011.92 1012.10 1012.21 1012.27 1012.26 1012.17 1012.00 1011.76 1011.46 1011.10 1010.70 1010.29 1009.88 1009.49 1009.14 1008.84 1008.59 1008.41 1008.30 1008.25 1008.27 1008.37 1008.54 1008.82 1009.20 1009.70 1010.32 1011.06 1011.90 1012.83 1013.80 1014.78 1015.74 1016.65 1017.49 1018.24 1018.91 1019.49 1019.99 1020.43 1020.79 1021.10 1021.33
1012.01 1012.16 1012.26 1012.29 1012.24 1012.10 1011.88 1011.59 1011.25 1010.87 1010.48 1010.10 1009.74 1009.41 1009.13 1008.89 1008.69 1008.53 1008.40 1008.31 1008.24 1008.23 1008.28 1008.43 1008.68 1009.05 1009.56 1010.21 1010.99 1011.88 1012.83 1013.83 1014.81 1015.76 1016.65 1017.47 1018.20 1018.86 1019.44 1019.96 1020.43 1020.84 1021.19 1021.47
1012.30 1012.37 1012.39 1012.32 1012.17 1011.94 1011.64 1011.28 1010.88 1010.48 1010.09 1009.75 1009.44 1009.20 1009.00 1008.84 1008.70 1008.58 1008.47 1008.37 1008.28 1008.23 1008.25 1008.36 1008.59 1008.96 1009.49 1010.16 1010.97 1011.88 1012.85 1013.84 1014.82 1015.75 1016.61 1017.39 1018.10 1018.75 1019.34 1019.88 1020.38 1020.84 1021.24 1021.57
1012.54 1012.52 1012.44 1012.28 1012.06 1011.76 1011.41 1011.02 1010.62 1010.24 1009.89 1009.60 1009.36 1009.18 1009.04 1008.93 1008.83 1008.73 1008.62 1008.49 1008.38 1008.29 1008.28 1008.36 1008.58 1008.95 1009.48 1010.17 1010.99 1011.90 1012.87 1013.85 1014.80 1015.70 1016.53 1017.28 1017.97 1018.61 1019.21 1019.78 1020.32 1020.82 1021.26 1021.63
1012.70 1012.57 1012.40 1012.17 1011.88 1011.55 1011.19 1010.81 1010.45 1010.11 1009.83 1009.60 1009.43 1009.31 1009.22 1009.14 1009.06 1008.95 1008.82 1008.67 1008.52 1008.41 1008.37 1008.44 1008.64 1009.01 1009.54 1010.23 1011.04 1011.94 1012.90 1013.85 1014.77 1015.64 1016.44 1017.17 1017.85 1018.49 1019.10 1019.69 1020.26 1020.79 1021.27 1021.67
1012.74 1012.52 1012.26 1011.97 1011.66 1011.32 1010.98 1010.64 1010.34 1010.08 1009.86 1009.71 1009.60 1009.53 1009.48 1009.42 1009.34 1009.22 1009.08 1008.90 1008.73 1008.60 1008.54 1008.59 1008.79 1009.14 1009.66 1010.34 1011.13 1012.01 1012.94 1013.86 1014.75 1015.60 1016.38 1017.10 1017.78 1018.43 1019.05 1019.66 1020.25 1020.80 1021.29 1021.70
1012.67 1012.37 1012.06 1011.73 1011.41 1011.09 1010.79 1010.52 1010.30 1010.12 1009.98 1009.90 1009.85 1009.82 1009.79 1009.74 1009.66 1009.53 1009.37 1009.18 1008.99 1008.85 1008.78 1008.82 1009.01 1009.35 1009.85 1010.50 1011.27 1012.11 1013.00 1013.90 1014.77 1015.60 1016.37 1017.10 1017.79 1018.45 1019.09 1019.72 1020.31 1020.86 1021.35 1021.74
1012.51 1012.16 1011.81 1011.48 1011.18 1010.90 1010.67 1010.48 1010.34 1010.24 1010.18 1010.16 1010.16 1010.16 1010.14 1010.09 1010.00 1009.87 1009.69 1009.50 1009.31 1009.16 1009.08 1009.12 1009.30 1009.62 1010.10 1010.71 1011.44 1012.24 1013.10 1013.97 1014.82 1015.64 1016.43 1017.17 1017.88 1018.56 1019.22 1019.85 1020.44 1020.97 1021.43 1021.80
1012.27 1011.90 1011.56 1011.25 1010.99 1010.78 1010.63 1010.53 1010.48 1010.46 1010.47 1010.50 1010.52 1010.54 1010.52 1010.47 1010.37 1010.23 1010.05 1009.85 1009.66 1009.52 1009.44 1009.48 1009.64 1009.93 1010.37 1010.94 1011.62 1012.38 1013.20 1014.05 1014.89 1015.72 1016.52 1017.29 1018.03 1018.73 1019.40 1020.03 1020.60 1021.10 1021.52 1021.84
1011.98 1011.62 1011.31 1011.06 1010.87 1010.76 1010.70 1010.69 1010.72 1010.78 1010.85 1010.91 1010.96 1010.98 1010.96 1010.89 1010.78 1010.63 1010.44 1010.25 1010.07 1009.92 1009.85 1009.87 1010.00 1010.26 1010.65 1011.17 1011.79 1012.50 1013.28 1014.10 1014.94 1015.78 1016.60 1017.40 1018.17 1018.89 1019.57 1020.19 1020.74 1021.21 1021.59 1021.86
Thickness
5719 5706 5697 5701 5703 5702 5697 5692 5689 5695 5707 5702 5697 5698 5705 5711 5710 5708 5707 5707 5708 5711 5717 5718 5717 5717 5716 5715 5715 5714 5712 5711 5710 5707 5705 5703 5701 5701 5701 5701 5700 5700 5699 5698
5702 5698 5707 5711 5708 5702 5696 5689 5688 5694 5704 5700 5694 5695 5704 5707 5708 5710 5709 5707 5708 5709 5712 5713 5714 5713 5712 5712 5711 5711 5710 5709 5708 5707 5705 5702 5700 5699 5698 5698 5697 5696 5696 5694
5697 5702 5712 5708 5702 5696 5693 5687 5688 5689 5695 5696 5692 5687 5696 5704 5707 5709 5709 5708 5708 5709 5709 5709 5710 5710 5710 5709 5709 5709 5707 5706 5705 5704 5702 5700 5697 5695 5694 5693 5693 5693 5692 5691
5698 5706 5706 5701 5696 5695 5684 5696 5694 5690 5681 5672 5681 5664 5684 5692 5697 5702 5703 5703 5704 5707 5707 5707 5707 5707 5707 5707 5707 5706 5705 5703 5702 5700 5699 5696 5693 5690 5690 5689 5689 5689 5689 5688
5695 5701 5699 5695 5697 5698 5691 5697 5691 5686 5677 5668 5670 5662 5671 5685 5688 5695 5700 5701 5703 5704 5705 5704 5705 5705 5705 5705 5703 5703 5701 5700 5698 5697 5695 5693 5691 5689 5687 5686 5685 5685 5684 5684
5696 5703 5702 5699 5702 5700 5696 5686 5678 5668 5662 5653 5664 5659 5662 5675 5686 5693 5698 5700 5701 5701 5702 5702 5702 5702 5701 5700 5699 5698 5697 5695 5695 5693 5692 5690 5688 5685 5683 5681 5680 5679 5679 5679
5684 5692 5700 5702 5693 5692 5685 5667 5649 5646 5640 5645 5662 5658 5664 5685 5691 5694 5695 5697 5698 5699 5698 5697 5697 5696 5696 5695 5694 5694 5692 5691 5690 5689 5688 5687 5684 5682 5681 5678 5676 5675 5674 5674
5667 5667 5688 5693 5688 5680 5676 5667 5646 5637 5634 5640 5654 5653 5670 5689 5693 5695 5695 5695 5695 5694 5694 5694 5694 5693 5692 5691 5690 5689 5687 5686 5685 5684 5683 5682 5681 5679 5677 5676 5674 5672 5671 5671
5662 5665 5687 5692 5692 5683 5670 5662 5662 5645 5640 5635 5643 5657 5674 5687 5687 5689 5689 5690 5689 5689 5690 5690 5690 5690 5688 5687 5685 5684 5683 5682 5681 5680 5679 5677 5676 5674 5673 5672 5670 5669 5668 5667
5669 5662 5675 5682 5685 5680 5675 5663 5649 5641 5632 5628 5640 5648 5655 5671 5676 5680 5682 5681 5682 5684 5684 5685 5685 5685 5684 5683 5681 5680 5679 5678 5677 5676 5674 5673 5671 5670 5669 5667 5665 5664 5663 5662
5669 5657 5661 5668 5667 5665 5664 5658 5647 5637 5635 5626 5626 5642 5667 5669 5673 5673 5675 5677 5677 5678 5678 5679 5680 5680 5679 5677 5675 5673 5673 5672 5671 5670 5669 5668 5666 5665 5664 5663 5661 5660 5659 5657
5660 5648 5644 5655 5668 5670 5666 5659 5647 5637 5632 5627 5625 5639 5670 5669 5670 5670 5671 5672 5673 5673 5673 5673 5673 5673 5672 5670 5669 5667 5666 5666 5666 5665 5664 5663 5661 5660 5659 5658 5657 5655 5653 5652
5655 5643 5634 5640 5648 5658 5657 5655 5649 5639 5628 5620 5621 5639 5665 5663 5664 5665 5665 5666 5665 5666 5666 5666 5665 5664 5664 5663 5663 5662 5661 5661 5660 5659 5658 5657 5655 5654 5653 5652 5652 5650 5648 5646
5656 5640 5634 5631 5637 5646 5648 5649 5646 5637 5625 5622 5628 5640 5653 5656 5656 5658 5659 5659 5659 5659 5658 5657 5656 5656 5656 5656 5656 5656 5655 5655 5654 5652 5651 5650 5650 5649 5648 5647 5645 5644 5642 5639
5648 5636 5637 5638 5643 5645 5644 5645 5643 5638 5634 5629 5636 5638 5647 5650 5650 5651 5652 5652 5652 5652 5651 5650 5648 5648 5648 5649 5649 5649 5648 5648 5647 5646 5645 5644 5644 5643 5642 5640 5638 5636 5634 5633
5637 5632 5632 5632 5637 5637 5636 5639 5639 5638 5637 5634 5636 5636 5645 5645 5645 5644 5645 5645 5644 5643 5643 5643 5642 5640 5640 5641 5642 5642 5642 5641 5640 5639 5638 5638 5637 5636 5634 5633 5631 5629 5626 5624
5625 5624 5619 5616 5624 5629 5624 5634 5635 5634 5634 5632 5629 5635 5639 5637 5638 5637 5638 5638 5637 5636 5636 5635 5634 5633 5633 5634 5635 5635 5635 5634 5633 5631 5631 5630 5629 5628 5627 5625 5623 5621 5618 5616
5619 5613 5605 5604 5612 5608 5626 5636 5635 5632 5631 5631 5631 5632 5633 5632 5632 5633 5632 5630 5629 5630 5629 5628 5627 5627 5627 5627 5627 5627 5627 5625 5624 5623 5623 5622 5621 5621 5619 5617 5615 5613 5611 5608
5617 5609 5598 5592 5596 5605 5621 5629 5627 5624 5623 5628 5625 5626 5626 5626 5625 5623 5625 5624 5622 5622 5621 5620 5619 5619 5618 5619 5619 5618 5617 5617 5616 5615 5615 5615 5614 5613 5611 5609 5608 5606 5603 5601
5608 5604 5594 5587 5592 5595 5615 5627 5628 5622 5614 5622 5619 5618 5616 5615 5608 5611 5617 5615 5614 5614 5613 5612 5612 5611 5610 5610 5610 5608 5608 5608 5608 5608 5608 5607 5606 5605 5604 5603 5601 5598 5596 5595
5598 5592 5587 5584 5586 5595 5613 5619 5618 5603 5606 5614 5613 5611 5608 5603 5603 5606 5607 5606 5605 5605 5605 5604 5603 5602 5601 5601 5600 5598 5598 5598 5600 5600 5600 5599 5598 5597 5597 5595 5593 5591 5589 5587
5593 5587 5583 5579 5580 5591 5611 5609 5603 5602 5605 5605 5604 5602 5599 5598 5599 5598 5597 5596 5596 5596 5596 5595 5594 5593 5592 5591 5590 5589 5589 5590 5591 5590 5590 5589 5588 5589 5589 5586 5584 5582 5580 5578
5589 5592 5588 5587 5592 5599 5601 5602 5602 5599 5596 5596 5594 5593 5591 5590 5589 5589 5588 5588 5587 5587 5586 5586 5585 5583 5582 5581 5580 5579 5580 5580 5580 5580 5579 5578 5578 5578 5577 5575 5574 5572 5570 5569
5585 5586 5583 5582 5589 5592 5593 5593 5593 5592 5590 5589 5588 5585 5584 5582 5581 5580 5579 5578 5578 5577 5576 5576 5575 5573 5572 5572 5571 5571 5571 5571 5570 5570 5569 5568 5567 5567 5566 5565 5564 5562 5561 5560
5579 5577 5574 5575 5580 5583 5588 5586 5586 5585 5583 5582 5580 5578 5576 5574 5572 5571 5570 5569 5568 5567 5566 5565 5564 5563 5562 5562 5562 5562 5562 5561 5560 5559 5558 5557 5557 5556 5555 5554 5553 5552 5552 5551
5568 5570 5569 5573 5576 5573 5576 5579 5578 5576 5575 5573 5570 5568 5567 5566 5564 5563 5561 5561 5559 5558 5556 5555 5554 5553 5553 5552 5552 5553 5552 5551 5550 5549 5548 5548 5547 5545 5544 5543 5542 5542 5542 5543